When you browse on this site, cookies collect data to enhance your experience and personalize the content and advertising you see.
Visit our Privacy Policy to learn more. By continuing to use the site, you agree to this use of cookies and data.
  • In United Kingdom
  • List of Countries
  • For 7 days
  • Water Temperature
  • Satellite Maps
  • Weather Map
  • Weather Widgets
  • user-avatar
    Login

    Hourly Weather Barisal

    Today, 23 January, Wednesday

    Time Temperature Precipitation Wind Pressure Humidity
    00:00 +22°C° 0 mm 1 mps 761 mmHg 59%
    01:00 +21°C° 0 mm 1 mps 761 mmHg 60%
    02:00 +21°C° 0 mm 1 mps 761 mmHg 61%
    03:00 +21°C° 0 mm 1 mps 761 mmHg 62%
    04:00 +20°C° 0 mm 1 mps 761 mmHg 62%
    05:00 +20°C° 0 mm 1 mps 761 mmHg 61%
    06:00 +20°C° 0 mm 1 mps 761 mmHg 61%
    07:00 +21°C° 0 mm 1 mps 761 mmHg 55%
    08:00 +23°C° 0 mm 1 mps 762 mmHg 49%
    09:00 +25°C° 0 mm 2 mps 762 mmHg 42%
    10:00 +27°C° 0 mm 2 mps 762 mmHg 37%
    11:00 +28°C° 0 mm 2 mps 762 mmHg 32%
    12:00 +30°C° 0 mm 2 mps 762 mmHg 26%
    13:00 +31°C° 0 mm 2 mps 761 mmHg 25%
    14:00 +31°C° 0 mm 2 mps 761 mmHg 23%
    15:00 +32°C° 0 mm 2 mps 760 mmHg 22%
    16:00 +30°C° 0 mm 2 mps 760 mmHg 25%
    17:00 +29°C° 0 mm 2 mps 760 mmHg 29%
    18:00 +26°C° 0 mm 2 mps 760 mmHg 36%
    19:00 +25°C° 0 mm 1 mps 760 mmHg 41%
    20:00 +24°C° 0 mm 1 mps 760 mmHg 46%
    21:00 +24°C° 0 mm 1 mps 761 mmHg 50%
    22:00 +23°C° 0 mm 1 mps 761 mmHg 52%
    23:00 +23°C° 0 mm 1 mps 761 mmHg 54%

    Tomorrow, 24 January, Thursday

    Time Temperature Precipitation Wind Pressure Humidity
    00:00 +22°C° 0 mm 1 mps 761 mmHg 55%
    01:00 +22°C° 0 mm 1 mps 761 mmHg 56%
    02:00 +21°C° 0 mm 1 mps 761 mmHg 56%
    03:00 +21°C° 0 mm 1 mps 761 mmHg 57%
    04:00 +21°C° 0 mm 1 mps 761 mmHg 57%
    05:00 +20°C° 0 mm 1 mps 761 mmHg 57%
    06:00 +20°C° 0 mm 1 mps 761 mmHg 58%
    07:00 +22°C° 0 mm 1 mps 761 mmHg 53%
    08:00 +24°C° 0 mm 2 mps 762 mmHg 48%
    09:00 +25°C° 0 mm 2 mps 762 mmHg 44%
    10:00 +27°C° 0 mm 2 mps 762 mmHg 39%
    11:00 +29°C° 0 mm 3 mps 762 mmHg 34%
    12:00 +31°C° 0 mm 3 mps 762 mmHg 29%
    13:00 +31°C° 0 mm 3 mps 761 mmHg 28%
    14:00 +33°C° 0 mm 3 mps 761 mmHg 27%
    15:00 +33°C° 0 mm 3 mps 760 mmHg 25%
    16:00 +31°C° 0 mm 2 mps 760 mmHg 28%
    17:00 +29°C° 0 mm 2 mps 760 mmHg 32%
    18:00 +28°C° 0 mm 2 mps 760 mmHg 35%
    19:00 +27°C° 0 mm 1 mps 761 mmHg 39%
    20:00 +26°C° 0 mm 1 mps 761 mmHg 43%
    21:00 +25°C° 0 mm 1 mps 761 mmHg 47%
    22:00 +24°C° 0 mm 1 mps 761 mmHg 49%
    23:00 +24°C° 0 mm 1 mps 761 mmHg 51%

    Day after tomorrow, 25 January, Friday

    Time Temperature Precipitation Wind Pressure Humidity
    00:00 +23°C° 0 mm 1 mps 761 mmHg 53%
    01:00 +23°C° 0 mm 1 mps 761 mmHg 54%
    02:00 +22°C° 0 mm 1 mps 760 mmHg 55%
    03:00 +22°C° 0 mm 1 mps 760 mmHg 56%
    04:00 +22°C° 0 mm 1 mps 760 mmHg 57%
    05:00 +21°C° 0 mm 1 mps 760 mmHg 58%
    06:00 +21°C° 0 mm 1 mps 760 mmHg 59%
    07:00 +23°C° 0 mm 2 mps 761 mmHg 55%
    08:00 +24°C° 0 mm 2 mps 762 mmHg 50%
    09:00 +26°C° 0 mm 2 mps 762 mmHg 45%
    10:00 +28°C° 0 mm 3 mps 762 mmHg 40%
    11:00 +30°C° 0 mm 3 mps 762 mmHg 34%
    12:00 +33°C° 0 mm 4 mps 762 mmHg 29%
    13:00 +33°C° 0 mm 4 mps 761 mmHg 27%
    14:00 +34°C° 0 mm 4 mps 760 mmHg 26%
    15:00 +34°C° 0 mm 4 mps 759 mmHg 25%
    16:00 +31°C° 0 mm 3 mps 759 mmHg 28%
    17:00 +30°C° 0 mm 3 mps 759 mmHg 31%
    18:00 +28°C° 0 mm 3 mps 759 mmHg 34%
    19:00 +27°C° 0 mm 3 mps 760 mmHg 37%
    20:00 +26°C° 0 mm 3 mps 760 mmHg 39%
    21:00 +25°C° 0 mm 3 mps 761 mmHg 42%
    22:00 +25°C° 0 mm 3 mps 761 mmHg 44%
    23:00 +24°C° 0 mm 3 mps 761 mmHg 47%

    26 January, Saturday

    Time Temperature Precipitation Wind Pressure Humidity
    00:00 +23°C° 0 mm 2 mps 761 mmHg 49%
    01:00 +23°C° 0 mm 2 mps 760 mmHg 50%
    02:00 +23°C° 0 mm 2 mps 760 mmHg 52%
    03:00 +21°C° 0 mm 2 mps 760 mmHg 53%
    04:00 +21°C° 0 mm 2 mps 760 mmHg 54%
    05:00 +20°C° 0 mm 2 mps 760 mmHg 55%
    06:00 +20°C° 0 mm 2 mps 760 mmHg 56%
    07:00 +23°C° 0 mm 2 mps 761 mmHg 52%
    08:00 +24°C° 0 mm 2 mps 762 mmHg 48%
    09:00 +26°C° 0 mm 2 mps 762 mmHg 43%
    10:00 +28°C° 0 mm 2 mps 762 mmHg 38%
    11:00 +30°C° 0 mm 2 mps 762 mmHg 33%
    12:00 +32°C° 0 mm 2 mps 762 mmHg 28%
    13:00 +32°C° 0 mm 2 mps 761 mmHg 25%
    14:00 +34°C° 0 mm 2 mps 760 mmHg 23%
    15:00 +34°C° 0 mm 2 mps 760 mmHg 21%
    16:00 +31°C° 0 mm 2 mps 760 mmHg 25%
    17:00 +30°C° 0 mm 2 mps 760 mmHg 29%
    18:00 +28°C° 0 mm 2 mps 760 mmHg 33%
    19:00 +27°C° 0 mm 2 mps 761 mmHg 37%
    20:00 +26°C° 0 mm 1 mps 761 mmHg 41%
    21:00 +25°C° 0 mm 1 mps 762 mmHg 46%
    22:00 +25°C° 0 mm 1 mps 762 mmHg 48%
    23:00 +24°C° 0 mm 1 mps 762 mmHg 50%

    27 January, Sunday

    Time Temperature Precipitation Wind Pressure Humidity
    00:00 +23°C° 0 mm 2 mps 762 mmHg 53%
    01:00 +23°C° 0 mm 2 mps 761 mmHg 54%
    02:00 +21°C° 0 mm 2 mps 761 mmHg 56%
    03:00 +21°C° 0 mm 2 mps 761 mmHg 57%
    04:00 +21°C° 0 mm 2 mps 761 mmHg 57%
    05:00 +20°C° 0 mm 2 mps 761 mmHg 57%
    06:00 +20°C° 0 mm 2 mps 762 mmHg 57%
    07:00 +23°C° 0 mm 2 mps 762 mmHg 53%
    08:00 +24°C° 0 mm 3 mps 763 mmHg 49%
    09:00 +26°C° 0 mm 3 mps 764 mmHg 45%
    10:00 +27°C° 0 mm 3 mps 763 mmHg 39%
    11:00 +29°C° 0 mm 3 mps 763 mmHg 34%
    12:00 +31°C° 0 mm 3 mps 763 mmHg 28%
    13:00 +33°C° 0 mm 3 mps 762 mmHg 27%
    14:00 +33°C° 0 mm 3 mps 761 mmHg 26%
    15:00 +33°C° 0 mm 3 mps 760 mmHg 25%
    16:00 +31°C° 0 mm 3 mps 760 mmHg 28%
    17:00 +30°C° 0 mm 2 mps 761 mmHg 30%
    18:00 +28°C° 0 mm 2 mps 761 mmHg 33%
    19:00 +27°C° 0 mm 2 mps 761 mmHg 36%
    20:00 +26°C° 0 mm 1 mps 762 mmHg 38%
    21:00 +25°C° 0 mm 1 mps 762 mmHg 41%
    22:00 +25°C° 0 mm 2 mps 762 mmHg 42%
    23:00 +24°C° 0 mm 2 mps 762 mmHg 44%

    28 January, Monday

    Time Temperature Precipitation Wind Pressure Humidity
    00:00 +23°C° 0 mm 2 mps 762 mmHg 45%
    01:00 +23°C° 0 mm 2 mps 761 mmHg 46%
    02:00 +23°C° 0 mm 2 mps 761 mmHg 46%
    03:00 +23°C° 0 mm 2 mps 761 mmHg 46%
    04:00 +23°C° 0 mm 2 mps 761 mmHg 45%
    05:00 +23°C° 0 mm 2 mps 761 mmHg 45%
    06:00 +23°C° 0 mm 2 mps 762 mmHg 44%
    07:00 +24°C° 0 mm 3 mps 762 mmHg 43%
    08:00 +25°C° 0 mm 4 mps 763 mmHg 42%
    09:00 +26°C° 0 mm 4 mps 764 mmHg 41%
    10:00 +27°C° 0 mm 4 mps 763 mmHg 39%
    11:00 +28°C° 0 mm 4 mps 763 mmHg 37%
    12:00 +28°C° 0 mm 3 mps 763 mmHg 35%
    13:00 +29°C° 0 mm 3 mps 762 mmHg 34%
    14:00 +30°C° 0 mm 3 mps 761 mmHg 32%
    15:00 +30°C° 0 mm 3 mps 760 mmHg 31%
    16:00 +29°C° 0 mm 3 mps 761 mmHg 33%
    17:00 +28°C° 0 mm 3 mps 761 mmHg 35%
    18:00 +26°C° 0 mm 3 mps 761 mmHg 38%
    19:00 +26°C° 0 mm 3 mps 761 mmHg 39%
    20:00 +25°C° 0 mm 3 mps 761 mmHg 41%
    21:00 +24°C° 0 mm 3 mps 762 mmHg 42%
    22:00 +22°C° 0 mm 3 mps 762 mmHg 44%
    23:00 +22°C° 0 mm 3 mps 762 mmHg 46%
    Show more